"Pseudo-MPEC" for C3K5FZ2

Created 2020 Oct 19 1:07:11 UT using Find_Orb

Click here for an explanation of pseudo-MPECs

 
 Astrometry: 
     C3K5FZ2  C2020 10 16.33542103 27 17.07 +03 29 24.9    ~AG8q 20.66GVNEOCPG96
     C3K5FZ2  C2020 10 16.34058303 27 15.00 +03 29 58.4    ~AG8q 21.46GVNEOCPG96
     C3K5FZ2  C2020 10 16.35091103 27 10.62 +03 31 05.6    ~AG8q 21.04GVNEOCPG96
     C3K5FZ2 KC2020 10 16.43977703 26 32.80 +03 40 46.7    ~AGAq 21.27GVNEOCPV06
     C3K5FZ2 KC2020 10 16.44111103 26 32.23 +03 40 54.9    ~AGAq 21.31GVNEOCPV06
     C3K5FZ2 KC2020 10 16.44244503 26 31.67 +03 41 04.1    ~AGAq       VNEOCPV06
     C3K5FZ2 KC2020 10 16.44378203 26 31.11 +03 41 12.5    ~AGAq 21.03GVNEOCPV06
     C3K5FZ2 KC2020 10 17.29896403 21 01.17 +05 13 19.3    ~AH7b 21.71GVNEOCPI52
     C3K5FZ2 KC2020 10 17.30148503 21 00.17 +05 13 34.9    ~AH7b 21.60GVNEOCPI52
     C3K5FZ2 KC2020 10 17.30400703 20 59.09 +05 13 50.6    ~AH7b 20.89GVNEOCPI52
     C3K5FZ2 KC2020 10 18.31217303 14 27.75 +06 59 47.0    ~AI7q 21.49GVNEOCPI52
     C3K5FZ2 KC2020 10 18.31573603 14 26.29 +07 00 09.2    ~AI7q 21.94GVNEOCPI52
     C3K5FZ2 KC2020 10 18XcUAstrometryPy@/x7d/8WNNlayHw1CXN!:D]redacted;!6oEE858
     C3K5FZ2 KC2020 10 18.31929903 14 24.78 +07 00 31.8    ~AI7q 21.37GVNEOCPI52
     C3K5FZ2 KC2020 10 18?TpVrYIclickOawB#P`here%'K_S$Swfor;T3drY0explanation858

Station data:
(858) Tebbutt Observatory, Edgewood  (N35.093872 W106.220000)  US/New Mexico.
(G96) Mt. Lemmon Survey  (N32.442754 W110.788720)  US/Arizona.  Observers T.
   A. Pruyne, B. M. Africano, E. J. Christensen, G. A. Farneth, D. C. Fuls,
   A. R. Gibbs, A. D. Grauer, H. Gröller, J. A. Johnson, R. A. Kowalski, S.
   M. Larson, G. J. Leonard, D. Rankin, R. L. Seaman, F. C. Shelly. 1.5-m
   reflector + 10K CCD.
(I52) Steward Observatory, Mt. Lemmon Station  (N32.442547 W110.788920)
   US/Arizona.  Observers T. A. Pruyne, B. M. Africano, E. J. Christensen, G.
   A. Farneth, D. C. Fuls, A. R. Gibbs, A. D. Grauer, H. Gröller, J. A.
   Johnson, R. A. Kowalski, S. M. Larson, G. J. Leonard, D. Rankin, R. L.
   Seaman, F. C. Shelly. 1.0-m reflector + CCD.
(V06) Catalina Sky Survey-Kuiper  (N32.416847 W110.732550)  US/Arizona.
   Observers T. A. Pruyne, B. M. Africano, E. J. Christensen, G. A. Farneth,
   D. C. Fuls, A. R. Gibbs, A. D. Grauer, H. Gröller, J. A. Johnson, R. A.
   Kowalski, S. M. Larson, G. J. Leonard, D. Rankin, R. L. Seaman, F. C.
   Shelly. 1.55-m reflector + CCD.

Orbital elements:  C3K5FZ2
   Perihelion 2020 Jul 29.769078 +/- 0.0957 TT = 18:27:28 (JD 2459060.269078)
Epoch 2020 Oct 18.0 TT = JDT 2459140.5   Earth MOID: 0.0681   AutoNEOCP
M  65.42587468 +/- 0.20             (J2000 ecliptic)
n   0.81546955 +/- 0.00169          Peri.  270.00282 +/- 0.06
a   1.13465600 +/- 0.00157          Node    31.79259 +/- 0.007
e   0.1734837 +/- 0.00142           Incl.   11.31124 +/- 0.09
P   1.21/441.46d           H 25.4   G  0.15   U  8.5  
q 0.93781159 +/- 0.000318    Q 1.33150041 +/- 0.00346
From 15 observations 2020 Oct. 16-18; mean residual 0".41
Residuals in arcseconds: 
201016 G96  1.1-  .31+    201016 V06  .05-  .30+    201018 I52  .03-  .05+    
201016 G96  .68+  .00     201016 V06  .03+  .01-    201018 I52  .32+  .06+    
201016 G96  .78+  .43-    201017 I52  .61-  .38+    201018 858  .60+  .11-    
201016 V06  .03-  .29+    201017 I52  .23+  .19-    201018 I52  .06-  .47+    
201016 V06  .11-  .21-    201017 I52  .11-  .67-    201018 858  .59-  .13-    

Ephemerides (geocentric):
Date (UTC) HH   RA              Dec         delta   r     elong  mag " sig PA
---- -- -- --  -------------   -----------  ------ ------ -----  --- ---- ---
2020 10 19 01  03 09 45.961   +08 15 00.69  .09798 1.0868 156.7 21.6 .172 127
2020 10 19 02  03 09 30.049   +08 19 12.95  .09804 1.0869 156.8 21.6 .161 124
2020 10 19 03  03 09 14.145   +08 23 24.83  .09811 1.0870 157.0 21.6 .150 121
2020 10 19 04  03 08 58.251   +08 27 36.35  .09818 1.0871 157.1 21.6 .139 117
2020 10 19 05  03 08 42.367   +08 31 47.49  .09824 1.0872 157.2 21.6 .129 112
2020 10 19 06  03 08 26.492   +08 35 58.26  .09831 1.0873 157.3 21.6 .120 106
2020 10 19 07  03 08 10.627   +08 40 08.65  .09838 1.0875 157.4 21.6 .112  99
2020 10 19 08  03 07 54.771   +08 44 18.66  .09845 1.0876 157.5 21.6 .106  92
2020 10 19 09  03 07 38.925   +08 48 28.30  .09852 1.0877 157.6 21.6 .101  83
2020 10 19 10  03 07 23.089   +08 52 37.55  .09858 1.0878 157.7 21.6 .099  73
2020 10 19 11  03 07 07.263   +08 56 46.43  .09865 1.0879 157.8 21.6 .100  63
2020 10 19 12  03 06 51.447   +09 00 54.92  .09872 1.0881 157.9 21.6 .104  54
2020 10 19 13  03 06 35.641   +09 05 03.02  .09879 1.0882 158.1 21.6 .110  45
2020 10 19 14  03 06 19.845   +09 09 10.74  .09886 1.0883 158.2 21.6 .119  37
2020 10 19 15  03 06 04.060   +09 13 18.08  .09893 1.0884 158.3 21.6 .130  30
2020 10 19 16  03 05 48.284   +09 17 25.02  .09901 1.0885 158.4 21.6 .143  24
2020 10 19 17  03 05 32.519   +09 21 31.58  .09908 1.0886 158.5 21.6 .157  19
2020 10 19 18  03 05 16.765   +09 25 37.74  .09915 1.0888 158.6 21.6 .172  15
2020 10 19 19  03 05 01.021   +09 29 43.51  .09922 1.0889 158.7 21.6 .188  11
2020 10 19 20  03 04 45.288   +09 33 48.88  .09929 1.0890 158.8 21.6 .206   8
2020 10 19 21  03 04 29.565   +09 37 53.86  .09937 1.0891 158.9 21.6 .223   6
2020 10 19 22  03 04 13.853   +09 41 58.45  .09944 1.0892 159.0 21.6 .242   3
2020 10 19 23  03 03 58.152   +09 46 02.63  .09951 1.0894 159.1 21.5 .261   1
2020 10 20 00  03 03 42.462   +09 50 06.42  .09959 1.0895 159.2 21.5 .281   0
2020 10 20 01  03 03 26.783   +09 54 09.81  .09966 1.0896 159.3 21.5 .301 178
2020 10 20 02  03 03 11.114   +09 58 12.79  .09973 1.0897 159.5 21.5 .322 177
2020 10 20 03  03 02 55.457   +10 02 15.37  .09981 1.0898 159.6 21.5 .343 175
2020 10 20 04  03 02 39.812   +10 06 17.55  .09988 1.0900 159.7 21.5 .365 174
2020 10 20 05  03 02 24.177   +10 10 19.32  .09996 1.0901 159.8 21.5 .387 173
2020 10 20 06  03 02 08.554   +10 14 20.68  .10004 1.0902 159.9 21.5 .409 172
2020 10 20 07  03 01 52.942   +10 18 21.63  .10011 1.0903 160.0 21.5 .432 171
2020 10 20 08  03 01 37.341   +10 22 22.18  .10019 1.0904 160.1 21.5 .455 170
2020 10 20 09  03 01 21.753   +10 26 22.31  .10027 1.0905 160.2 21.5 .479 170
2020 10 20 10  03 01 06.175   +10 30 22.04  .10034 1.0907 160.3 21.5 .503 169
2020 10 20 11  03 00 50.610   +10 34 21.35  .10042 1.0908 160.4 21.5 .527 168
2020 10 20 12  03 00 35.056   +10 38 20.25  .10050 1.0909 160.5 21.5 .551 168
2020 10 20 13  03 00 19.514   +10 42 18.73  .10058 1.0910 160.6 21.5 .576 167
2020 10 20 14  03 00 03.984   +10 46 16.79  .10066 1.0911 160.7 21.5 .602 167
2020 10 20 15  02 59 48.466   +10 50 14.44  .10073 1.0913 160.8 21.5 .627 166
2020 10 20 16  02 59 32.960   +10 54 11.67  .10081 1.0914 160.9 21.5 .653 166
2020 10 20 17  02 59 17.467   +10 58 08.48  .10089 1.0915 161.0 21.5 .680 165
2020 10 20 18  02 59 01.985   +11 02 04.87  .10097 1.0916 161.1 21.5 .706 165
2020 10 20 19  02 58 46.516   +11 06 00.84  .10105 1.0917 161.2 21.5 .733 164
2020 10 20 20  02 58 31.059   +11 09 56.39  .10113 1.0918 161.3 21.5 .761 164
2020 10 20 21  02 58 15.614   +11 13 51.51  .10121 1.0920 161.4 21.5 .788 164
2020 10 20 22  02 58 00.182   +11 17 46.21  .10130 1.0921 161.5 21.5 .816 163
2020 10 20 23  02 57 44.762   +11 21 40.48  .10138 1.0922 161.6 21.5 .845 163
2020 10 21 00  02 57 29.355   +11 25 34.33  .10146 1.0923 161.7 21.5 .873 162